User: anonymous   Login
Location: Pleiades Observatory
(40.1297°N, 91.5238°W)
Time: 16:04:56
(UTC-05:00)
Language:

Cosmos 1842 Rocket - Orbit

View from above orbital plane
View from above orbital plane
View from above satellite
View from above satellite

Ground track
Ground track

The orbit data is extracted from the following two-line orbital elements,

1 17912U 87038B   18172.78902172 +.00000060 +00000-0 +44176-5 0  9994
2 17912 082.5030 063.5867 0021839 093.2759 267.0955 14.82978405661424
Epoch (UTC): 21 June 2018 18:56:11
Eccentricity: 0.0021839
inclination: 82.5030°
perigee height: 604 km
apogee height: 635 km
right ascension of ascending node: 63.5867°
argument of perigee: 93.2759°
revolutions per day: 14.82978405
mean anomaly at epoch: 267.0955°
orbit number at epoch: 66142

The dashed part of the orbit path shows where the satellite is in the earth's shadow,  

DLR